Location: Poigny-la-Forêt
(48.6876°N, 1.7701°E)
Time: 15:43:57
(UTC+02:00)

ISS - Pass Details

Date: 22 May 2019
Orbit: 408 x 418 km, 51.6° (Epoch: 25 June)

Event Time Altitude Azimuth Distance (km) Brightness Sun altitude
Rises 00:58:45 0° 282° (WNW) 2,362 0.4 -20.1°
Reaches altitude 10° 01:00:53 10° 287° (WNW) 1,500 -0.6 -20.2°
Maximum altitude 01:04:10 50° 5° (N) 545 -2.9 -20.3°
Enters shadow 01:06:51 14° 79° (ENE) 1,262 -1.3 -20.4°
